Location: Moscow
(38.8570°N, 84.2291°W)
Time: 19:18:08
(UTC+00:00)

Aureole 3 Rocket - Pass Details

Date: 15 November 2025
Orbit: 398 x 1690 km, 82.5° (Epoch: 12 December)

Event Time Altitude Azimuth Distance (km) Brightness Sun altitude
Rises 23:26:07 0° 179° (S) 2,469 6.3 -12.5°
Reaches altitude 10° 23:28:16 10° 175° (S) 1,516 5.2 -12.9°
Maximum altitude 23:31:23 58° 95° (E) 473 2.2 -13.5°
Drops below altitude 10° 23:34:22 10° 15° (NNE) 1,459 4.7 -14.0°
Enters shadow 23:34:31 - 15° (NNE) 1,521 4.8 -14.1°
